KF5JED-13 Weather Reports


Display with metric or nautical units.
time (UTC)temp
F
wind
direction
speed
MPH
gust
MPH
rain 1hr
in
rain 24hr
in
rain mn
in
humidity
%
barometer
mb
20260901064015 77 152 9.0 14.0 0.00 0.00 0.00 47 1019.2
20260901063512 77 158 9.0 12.0 0.00 0.00 0.00 47 1019.1
20260901063008 77 144 9.0 14.0 0.00 0.00 0.00 47 1019.2
20260901062503 77 153 7.0 11.0 0.00 0.00 0.00 48 1019.0
20260901061959 76 145 6.0 13.0 0.00 0.00 0.00 48 1019.1
20260901061454 77 159 9.0 12.0 0.00 0.00 0.00 48 1019.2
20260901060949 77 154 8.0 13.0 0.00 0.00 0.00 47 1018.9
20260901060444 77 153 11.0 12.0 0.00 0.00 0.00 48 1018.9
20260901055944 77 143 8.0 11.0 0.00 0.00 0.00 48 1019.0
20260901055440 77 156 7.0 11.0 0.00 0.00 0.00 48 1019.1
20260901054937 77 147 9.0 11.0 0.00 0.00 0.00 48 1018.9
20260901054434 76 148 8.0 10.0 0.00 0.00 0.00 49 1019.1
20260901053929 77 150 10.0 11.0 0.00 0.00 0.00 48 1019.0
20260901053425 77 145 8.0 13.0 0.00 0.00 0.00 48 1019.1
20260901052920 77 148 7.0 11.0 0.00 0.00 0.00 48 1019.0
20260901052415 78 155 9.0 11.0 0.00 0.00 0.00 47 1019.1
20260901051914 78 147 9.0 11.0 0.00 0.00 0.00 48 1019.2
20260901051410 78 136 8.0 11.0 0.00 0.00 0.00 48 1019.0
20260901050904 78 151 8.0 10.0 0.00 0.00 0.00 48 1019.1
20260901050400 78 154 8.0 12.0 0.00 0.00 0.00 47 1019.0
20260901045900 78 152 7.0 11.0 0.00 0.00 0.00 47 1018.8
20260901045354 78 157 8.0 13.0 0.00 0.00 0.00 47 1019.0
20260901044850 78 157 8.0 12.0 0.00 0.00 0.00 47 1018.9
20260901044346 78 158 7.0 14.0 0.00 0.00 0.00 47 1019.1
20260901043841 78 144 11.0 13.0 0.00 0.00 0.00 47 1019.0
20260901043337 78 148 9.0 13.0 0.00 0.00 0.00 47 1018.6
20260901042837 78 149 9.0 13.0 0.00 0.00 0.00 47 1018.8
20260901042331 78 153 5.0 11.0 0.00 0.00 0.00 47 1018.8
20260901041827 78 138 8.0 12.0 0.00 0.00 0.00 47 1018.9
20260901041322 79 155 9.0 10.0 0.00 0.00 0.00 47 1018.9
20260901040821 79 146 8.0 13.0 0.00 0.00 0.00 46 1018.8
20260901040320 79 150 6.0 11.0 0.00 0.00 0.00 46 1018.7
20260901035815 79 157 8.0 12.0 0.00 0.00 0.00 45 1018.8
20260901035314 79 144 7.0 11.0 0.00 0.00 0.00 45 1018.5
20260901034812 80 155 6.0 12.0 0.00 0.00 0.00 44 1018.7
20260901034308 80 157 6.0 11.0 0.00 0.00 0.00 44 1018.6
20260901033802 80 147 9.0 9.0 0.00 0.00 0.00 44 1018.6
20260901033301 80 136 6.0 9.0 0.00 0.00 0.00 44 1018.7
20260901032759 80 151 6.0 11.0 0.00 0.00 0.00 44 1018.2
20260901032254 81 141 5.0 10.0 0.00 0.00 0.00 43 1018.2
20260901031749 80 142 5.0 10.0 0.00 0.00 0.00 43 1018.4
20260901031244 80 142 7.0 10.0 0.00 0.00 0.00 43 1018.1
20260901030739 80 144 4.0 9.0 0.00 0.00 0.00 43 1018.2
20260901030234 81 142 6.0 10.0 0.00 0.00 0.00 42 1018.0
20260901025728 81 139 7.0 10.0 0.00 0.00 0.00 42 1017.9
20260901025223 80 143 5.0 9.0 0.00 0.00 0.00 43 1017.7
20260901024717 80 132 9.0 11.0 0.00 0.00 0.00 43 1017.7
20260901024217 81 146 6.0 7.0 0.00 0.00 0.00 42 1017.6
20260901023715 81 133 4.0 9.0 0.00 0.00 0.00 42 1017.7
20260901023210 82 139 6.0 8.0 0.00 0.00 0.00 41 1017.5
20260901022706 82 150 6.0 9.0 0.00 0.00 0.00 41 1017.3
20260901022201 83 159 6.0 11.0 0.00 0.00 0.00 40 1017.3
20260901021656 83 150 8.0 9.0 0.00 0.00 0.00 40 1017.1
20260901021151 83 161 6.0 9.0 0.00 0.00 0.00 40 1017.1
20260901020647 83 151 6.0 7.0 0.00 0.00 0.00 40 1017.1
20260901020142 84 148 8.0 10.0 0.00 0.00 0.00 39 1017.0
20260901015637 84 160 7.0 11.0 0.00 0.00 0.00 39 1016.9
20260901015137 84 158 6.0 8.0 0.00 0.00 0.00 38 1016.8
20260901014632 84 161 7.0 8.0 0.00 0.00 0.00 39 1016.8
20260901014128 84 167 4.0 7.0 0.00 0.00 0.00 39 1016.9
20260901013624 84 161 7.0 8.0 0.00 0.00 0.00 38 1016.6
20260901013120 85 160 5.0 7.0 0.00 0.00 0.00 38 1016.9
20260901012619 85 156 6.0 8.0 0.00 0.00 0.00 37 1016.8
20260901012114 85 166 6.0 7.0 0.00 0.00 0.00 37 1016.6
20260901011610 86 164 7.0 9.0 0.00 0.00 0.00 37 1016.6
20260901011108 86 168 9.0 10.0 0.00 0.00 0.00 36 1016.9
20260901010603 87 158 6.0 7.0 0.00 0.00 0.00 34 1016.7
20260901005557 89 147 10.0 11.0 0.00 0.00 0.00 33 1016.3
20260901005052 89 157 11.0 16.0 0.00 0.00 0.00 33 1016.3
20260901004552 89 161 9.0 16.0 0.00 0.00 0.00 33 1016.5
20260901004047 90 157 9.0 12.0 0.00 0.00 0.00 33 1016.6
20260901003542 90 171 8.0 13.0 0.00 0.00 0.00 32 1016.3
20260901003040 91 161 9.0 14.0 0.00 0.00 0.00 31 1016.5
20260901002540 91 159 9.0 12.0 0.00 0.00 0.00 31 1016.5
20260901002035 91 158 13.0 16.0 0.00 0.00 0.00 30 1016.2
20260901001531 91 148 11.0 15.0 0.00 0.00 0.00 31 1016.6
20260901001026 91 159 9.0 16.0 0.00 0.00 0.00 30 1016.5
20260901000526 92 153 15.0 17.0 0.00 0.00 0.00 30 1016.5
20260901000022 92 150 11.0 20.0 0.00 0.00 0.00 31 1016.6
20260831235515 93 157 14.0 15.0 0.00 0.00 0.00 31 1016.5
20260831235011 93 160 11.0 14.0 0.00 0.00 0.00 30 1016.5
20260831234505 93 171 11.0 18.0 0.00 0.00 0.00 31 1016.6
20260831234001 93 158 13.0 16.0 0.00 0.00 0.00 31 1016.5
20260831233456 93 170 11.0 17.0 0.00 0.00 0.00 31 1016.5
20260831232951 93 169 11.0 17.0 0.00 0.00 0.00 31 1016.3
20260831232447 93 150 11.0 16.0 0.00 0.00 0.00 30 1016.6
20260831231943 93 163 15.0 18.0 0.00 0.00 0.00 30 1016.5
20260831231439 94 164 10.0 17.0 0.00 0.00 0.00 30 1016.5
20260831230934 93 168 6.0 13.0 0.00 0.00 0.00 30 1016.5
20260831230434 93 159 9.0 13.0 0.00 0.00 0.00 30 1016.9
20260831225929 94 162 11.0 16.0 0.00 0.00 0.00 29 1016.7
20260831225425 93 156 11.0 19.0 0.00 0.00 0.00 29 1016.8
20260831224920 95 162 13.0 15.0 0.00 0.00 0.00 28 1016.9
20260831224420 94 149 6.0 13.0 0.00 0.00 0.00 28 1016.9
20260831223914 95 165 11.0 13.0 0.00 0.00 0.00 27 1016.8
20260831223410 95 169 9.0 16.0 0.00 0.00 0.00 28 1016.8
20260831222907 94 159 5.0 11.0 0.00 0.00 0.00 30 1016.7
20260831222402 94 157 4.0 10.0 0.00 0.00 0.00 29 1016.9
20260831221857 95 156 5.0 9.0 0.00 0.00 0.00 28 1016.8
20260831221353 95 163 15.0 16.0 0.00 0.00 0.00 28 1016.8
20260831220848 94 162 9.0 14.0 0.00 0.00 0.00 28 1017.1
20260831220343 93 154 6.0 13.0 0.00 0.00 0.00 30 1016.9
20260831215838 96 167 10.0 14.0 0.00 0.00 0.00 27 1016.9
20260831215334 94 152 11.0 13.0 0.00 0.00 0.00 28 1017.0
20260831214830 93 151 8.0 20.0 0.00 0.00 0.00 30 1017.0
20260831214328 93 125 12.0 13.0 0.00 0.00 0.00 30 1016.8
20260831213822 94 155 7.0 14.0 0.00 0.00 0.00 29 1017.0
20260831213319 94 221 7.0 16.0 0.00 0.00 0.00 28 1017.0
20260831212814 95 199 14.0 20.0 0.00 0.00 0.00 29 1016.9
20260831212310 93 161 6.0 15.0 0.00 0.00 0.00 30 1017.2
20260831211803 95 160 9.0 15.0 0.00 0.00 0.00 28 1017.5
20260831211258 93 168 12.0 13.0 0.00 0.00 0.00 29 1017.6
20260831210752 94 170 8.0 16.0 0.00 0.00 0.00 30 1017.5
20260831210249 94 132 14.0 24.0 0.00 0.00 0.00 30 1017.6
20260831205748 93 164 6.0 10.0 0.00 0.00 0.00 30 1017.7
20260831205244 94 198 10.0 15.0 0.00 0.00 0.00 29 1017.7
20260831204744 94 218 13.0 21.0 0.00 0.00 0.00 29 1017.7
20260831204244 94 155 9.0 12.0 0.00 0.00 0.00 29 1017.8
20260831203743 96 150 10.0 13.0 0.00 0.00 0.00 28 1018.0
20260831203238 94 163 13.0 18.0 0.00 0.00 0.00 30 1018.0
20260831202736 93 157 5.0 8.0 0.00 0.00 0.00 29 1018.0
20260831202231 93 146 11.0 14.0 0.00 0.00 0.00 30 1018.2
20260831201731 93 152 11.0 18.0 0.00 0.00 0.00 30 1018.4
20260831201225 94 159 4.0 10.0 0.00 0.00 0.00 30 1018.4
20260831200720 94 164 9.0 14.0 0.00 0.00 0.00 31 1018.5
20260831200214 93 143 9.0 17.0 0.00 0.00 0.00 31 1018.5
20260831195710 94 175 11.0 16.0 0.00 0.00 0.00 30 1018.5
20260831195206 93 156 10.0 15.0 0.00 0.00 0.00 29 1018.6
20260831194700 96 130 7.0 14.0 0.00 0.00 0.00 29 1018.6
20260831194155 97 165 13.0 14.0 0.00 0.00 0.00 28 1018.6
20260831193650 94 162 7.0 7.0 0.00 0.00 0.00 31 1018.6
20260831193145 95 200 5.0 10.0 0.00 0.00 0.00 29 1018.8
20260831192641 93 192 4.0 8.0 0.00 0.00 0.00 30 1018.8
20260831192136 93 128 8.0 11.0 0.00 0.00 0.00 31 1018.9
20260831191632 94 163 13.0 18.0 0.00 0.00 0.00 30 1018.7
20260831191127 95 170 8.0 13.0 0.00 0.00 0.00 31 1018.9
20260831190622 94 182 4.0 8.0 0.00 0.00 0.00 31 1018.7
20260831190120 94 183 11.0 14.0 0.00 0.00 0.00 31 1019.0
20260831185611 93 199 6.0 6.0 0.00 0.00 0.00 31 1019.1
20260831185107 95 163 8.0 15.0 0.00 0.00 0.00 30 1019.2
20260831184606 94 173 10.0 14.0 0.00 0.00 0.00 31 1019.2
20260831184101 94 199 10.0 16.0 0.00 0.00 0.00 32 1019.2
20260831183600 94 144 4.0 12.0 0.00 0.00 0.00 32 1019.2
20260831183054 93 151 5.0 13.0 0.00 0.00 0.00 33 1019.5
20260831182549 92 147 8.0 15.0 0.00 0.00 0.00 34 1019.6
20260831182044 92 167 6.0 11.0 0.00 0.00 0.00 34 1019.5
20260831181539 92 159 11.0 16.0 0.00 0.00 0.00 33 1019.4
20260831181039 92 187 5.0 16.0 0.00 0.00 0.00 34 1019.5
20260831180534 92 211 7.0 14.0 0.00 0.00 0.00 35 1019.7
20260831180029 91 221 8.0 20.0 0.00 0.00 0.00 37 1019.5
20260831175524 91 161 7.0 11.0 0.00 0.00 0.00 36 1019.8
20260831175021 90 197 9.0 21.0 0.00 0.00 0.00 36 1019.7
20260831174520 93 186 9.0 15.0 0.00 0.00 0.00 35 1019.9
20260831174015 92 183 11.0 16.0 0.00 0.00 0.00 36 1019.7
20260831173513 91 203 12.0 17.0 0.00 0.00 0.00 37 1020.0
20260831173010 89 236 14.0 15.0 0.00 0.00 0.00 39 1019.7
20260831172505 90 214 14.0 17.0 0.00 0.00 0.00 38 1019.8
20260831171959 91 213 11.0 15.0 0.00 0.00 0.00 37 1019.9
20260831171454 91 190 12.0 19.0 0.00 0.00 0.00 39 1020.0
20260831170951 90 187 9.0 14.0 0.00 0.00 0.00 39 1020.0
20260831170447 89 207 9.0 17.0 0.00 0.00 0.00 40 1020.1
20260831165939 89 207 10.0 17.0 0.00 0.00 0.00 40 1020.0
20260831165434 88 204 10.0 14.0 0.00 0.00 0.00 41 1019.9
20260831164931 88 207 11.0 17.0 0.00 0.00 0.00 41 1019.9
20260831164426 87 208 9.0 15.0 0.00 0.00 0.00 43 1020.1
20260831163921 88 214 9.0 17.0 0.00 0.00 0.00 43 1020.0
20260831163417 87 225 12.0 16.0 0.00 0.00 0.00 44 1020.1
20260831162915 86 209 13.0 17.0 0.00 0.00 0.00 45 1020.0
20260831162411 85 217 12.0 18.0 0.00 0.00 0.00 46 1020.1
20260831161909 86 211 9.0 18.0 0.00 0.00 0.00 46 1020.1
20260831161406 86 210 9.0 17.0 0.00 0.00 0.00 45 1020.0
20260831160901 86 216 13.0 16.0 0.00 0.00 0.00 46 1020.1
20260831160356 86 209 17.0 18.0 0.00 0.00 0.00 46 1020.1
20260831155851 84 213 15.0 18.0 0.00 0.00 0.00 48 1019.9
20260831155351 86 220 17.0 20.0 0.00 0.00 0.00 47 1019.9
20260831154846 84 213 14.0 21.0 0.00 0.00 0.00 49 1019.9
20260831154343 84 217 11.0 17.0 0.00 0.00 0.00 49 1019.8
20260831153841 83 213 10.0 15.0 0.00 0.00 0.00 49 1020.1
20260831153337 84 227 12.0 15.0 0.00 0.00 0.00 50 1019.7
20260831152833 83 210 12.0 21.0 0.00 0.00 0.00 50 1020.0
20260831152329 83 218 8.0 18.0 0.00 0.00 0.00 51 1019.7
20260831151824 82 233 11.0 17.0 0.00 0.00 0.00 51 1020.1
20260831151323 82 218 7.0 16.0 0.00 0.00 0.00 51 1019.8
20260831150818 82 217 10.0 17.0 0.00 0.00 0.00 51 1019.8
20260831150314 82 220 9.0 17.0 0.00 0.00 0.00 51 1019.8
20260831145812 82 217 11.0 15.0 0.00 0.00 0.00 51 1020.0
20260831145309 81 214 7.0 13.0 0.00 0.00 0.00 52 1019.9
20260831144804 80 226 10.0 12.0 0.00 0.00 0.00 53 1020.0
20260831144301 79 255 2.0 8.0 0.00 0.00 0.00 54 1019.9
20260831143800 79 218 6.0 11.0 0.00 0.00 0.00 54 1020.0
20260831143255 79 234 4.0 5.0 0.00 0.00 0.00 55 1019.9
20260831142750 78 234 4.0 5.0 0.00 0.00 0.00 55 1020.0
20260831142246 78 319 3.0 4.0 0.00 0.00 0.00 55 1019.9
20260831141746 78 249 2.0 5.0 0.00 0.00 0.00 56 1019.9
20260831141245 77 197 2.0 3.0 0.00 0.00 0.00 55 1019.7
20260831140740 77 240 1.0 3.0 0.00 0.00 0.00 56 1019.7
20260831140234 76 339 3.0 4.0 0.00 0.00 0.00 57 1019.7
20260831135732 76 323 3.0 6.0 0.00 0.00 0.00 58 1019.6
20260831135228 75 291 3.0 4.0 0.00 0.00 0.00 56 1019.6
20260831134724 75 236 2.0 6.0 0.00 0.00 0.00 58 1019.4
20260831134220 74 216 5.0 9.0 0.00 0.00 0.00 57 1019.2
20260831133719 74 207 6.0 7.0 0.00 0.00 0.00 58 1018.9
20260831133213 74 203 7.0 7.0 0.00 0.00 0.00 58 1019.0
20260831132709 73 170 4.0 5.0 0.00 0.00 0.00 59 1019.2
20260831132208 72 196 4.0 5.0 0.00 0.00 0.00 62 1019.1
20260831131702 72 172 3.0 4.0 0.00 0.00 0.00 63 1018.9
20260831131159 71 157 0.0 2.0 0.00 0.00 0.00 63 1019.0
20260831130654 71 50 0.0 2.0 0.00 0.00 0.00 65 1018.8
20260831130150 70 12 1.0 2.0 0.00 0.00 0.00 65 1019.0
20260831125648 69 30 0.0 1.0 0.00 0.00 0.00 66 1018.7
20260831125144 68 208 1.0 2.0 0.00 0.00 0.00 68 1018.5
20260831124640 68 205 2.0 3.0 0.00 0.00 0.00 69 1018.1
20260831124136 68 187 3.0 5.0 0.00 0.00 0.00 67 1018.1
20260831123635 68 218 4.0 5.0 0.00 0.00 0.00 68 1018.1
20260831123134 66 204 4.0 4.0 0.00 0.00 0.00 70 1018.0
20260831122634 66 183 4.0 4.0 0.00 0.00 0.00 71 1017.9
20260831122130 66 197 3.0 5.0 0.00 0.00 0.00 70 1017.7
20260831121629 66 154 3.0 5.0 0.00 0.00 0.00 71 1017.6
20260831121126 67 185 2.0 3.0 0.00 0.00 0.00 69 1017.7
20260831120621 68 184 2.0 6.0 0.00 0.00 0.00 67 1017.5
20260831120116 68 215 6.0 6.0 0.00 0.00 0.00 67 1017.3
20260831115612 67 203 4.0 6.0 0.00 0.00 0.00 69 1017.3
20260831115107 66 175 3.0 5.0 0.00 0.00 0.00 70 1017.2
20260831114605 66 181 3.0 5.0 0.00 0.00 0.00 70 1017.2
20260831114101 67 162 5.0 6.0 0.00 0.00 0.00 69 1017.2
20260831113600 68 161 5.0 6.0 0.00 0.00 0.00 68 1017.3
20260831113056 69 220 3.0 5.0 0.00 0.00 0.00 65 1017.0
20260831112555 70 226 4.0 6.0 0.00 0.00 0.00 63 1017.1
20260831112050 70 214 6.0 8.0 0.00 0.00 0.00 62 1017.2
20260831111546 68 207 4.0 6.0 0.00 0.00 0.00 65 1017.0
20260831111042 69 184 5.0 6.0 0.00 0.00 0.00 65 1016.9
20260831110537 68 176 6.0 6.0 0.00 0.00 0.00 65 1016.8
20260831110032 68 171 6.0 7.0 0.00 0.00 0.00 65 1016.7
20260831105525 68 183 6.0 7.0 0.00 0.00 0.00 66 1016.9
20260831105020 68 190 3.0 6.0 0.00 0.00 0.00 67 1016.9
20260831104517 67 197 4.0 5.0 0.00 0.00 0.00 67 1017.0
20260831104013 67 191 3.0 4.0 0.00 0.00 0.00 67 1017.0
20260831103513 68 178 2.0 4.0 0.00 0.00 0.00 66 1017.1
20260831103009 68 180 4.0 5.0 0.00 0.00 0.00 67 1017.1
20260831102508 67 193 3.0 5.0 0.00 0.00 0.00 67 1017.0
20260831101958 67 175 3.0 4.0 0.00 0.00 0.00 67 1017.1
20260831101453 68 191 5.0 5.0 0.00 0.00 0.00 65 1017.1
20260831100949 69 182 3.0 4.0 0.00 0.00 0.00 64 1017.1
20260831100445 71 206 5.0 5.0 0.00 0.00 0.00 59 1017.0
20260831095940 70 212 2.0 3.0 0.00 0.00 0.00 61 1017.2
20260831095439 69 210 4.0 4.0 0.00 0.00 0.00 62 1017.0
20260831094933 69 164 3.0 4.0 0.00 0.00 0.00 63 1017.0
20260831094430 70 201 3.0 5.0 0.00 0.00 0.00 60 1017.2
20260831093926 69 202 6.0 6.0 0.00 0.00 0.00 61 1017.0
20260831093421 68 188 3.0 4.0 0.00 0.00 0.00 64 1017.0
20260831092917 68 159 4.0 5.0 0.00 0.00 0.00 63 1017.2
20260831092412 69 170 3.0 3.0 0.00 0.00 0.00 61 1017.0
20260831091907 70 186 2.0 3.0 0.00 0.00 0.00 59 1017.1
20260831091402 71 236 3.0 3.0 0.00 0.00 0.00 59 1017.2
20260831090858 71 249 2.0 5.0 0.00 0.00 0.00 58 1017.2
20260831090348 71 211 6.0 8.0 0.00 0.00 0.00 56 1016.7
20260831085844 71 197 6.0 9.0 0.00 0.00 0.00 56 1016.8
20260831085338 71 204 4.0 9.0 0.00 0.00 0.00 56 1016.6
20260831084833 71 200 8.0 10.0 0.00 0.00 0.00 56 1016.7
20260831084330 71 192 7.0 9.0 0.00 0.00 0.00 57 1016.6
20260831083826 71 189 4.0 9.0 0.00 0.00 0.00 56 1016.5
20260831083321 71 180 6.0 8.0 0.00 0.00 0.00 56 1016.5
20260831082820 71 183 6.0 8.0 0.00 0.00 0.00 57 1016.6
20260831082315 71 187 6.0 8.0 0.00 0.00 0.00 56 1016.6
20260831081810 72 179 5.0 7.0 0.00 0.00 0.00 56 1016.5
20260831081305 72 170 6.0 7.0 0.00 0.00 0.00 55 1016.3
20260831080800 73 195 8.0 9.0 0.00 0.00 0.00 54 1016.5
20260831080255 73 194 7.0 10.0 0.00 0.00 0.00 54 1016.6
20260831075752 72 192 6.0 8.0 0.00 0.00 0.00 56 1016.6
20260831075247 71 172 5.0 6.0 0.00 0.00 0.00 58 1016.6
20260831074746 71 182 5.0 6.0 0.00 0.00 0.00 57 1016.7
20260831074240 72 178 5.0 6.0 0.00 0.00 0.00 56 1016.6
20260831073737 72 182 6.0 7.0 0.00 0.00 0.00 55 1016.8
20260831073235 73 181 5.0 8.0 0.00 0.00 0.00 54 1016.6
20260831072730 73 188 5.0 7.0 0.00 0.00 0.00 53 1016.8
20260831072226 75 197 4.0 9.0 0.00 0.00 0.00 52 1016.5
20260831071721 75 200 7.0 12.0 0.00 0.00 0.00 50 1016.5
20260831071215 75 205 5.0 9.0 0.00 0.00 0.00 50 1016.8
20260831070714 76 188 6.0 10.0 0.00 0.00 0.00 49 1016.6
20260831070208 76 204 7.0 13.0 0.00 0.00 0.00 49 1016.8
20260831065703 77 180 11.0 14.0 0.00 0.00 0.00 48 1016.5
20260831065201 77 185 8.0 12.0 0.00 0.00 0.00 48 1016.5
20260831064656 77 177 8.0 12.0 0.00 0.00 0.00 48 1016.6